Location: Newark
(48.5667°N, 12.8167°E)
Time: 13:56:04
(UTC+00:00)

CAS-4B - Pass Details

Date: 20 November 2019
Orbit: 528 x 546 km, 43.0° (Epoch: 11 December)

Event Time Altitude Azimuth Distance (km) Brightness Sun altitude
Rises 05:21:32 0° 215° (SW) 2,677 ? -10.2°
Reaches altitude 10° 05:24:22 10° 195° (SSW) 1,785 ? -9.8°
Maximum altitude 05:27:03 17° 153° (SSE) 1,390 ? -9.4°
Drops below altitude 10° 05:29:44 10° 112° (ESE) 1,782 ? -9.0°
Sets 05:32:33 0° 92° (E) 2,671 ? -8.5°
